Tracking 29892 objects as of 21-Nov-2024
HD Live streaming from Space Station
objects crossing your sky now

STARLINK-5613

Track STARLINK-5613 now!
10-day predictions
STARLINK-5613 is classified as:


NORAD ID: 55752
Int'l Code: 2023-028M
Perigee: 577.4 km
Apogee: 581.0 km
Inclination: 70.0 °
Period: 96.1 minutes
Semi major axis: 6950 km
RCS: Unknown
Launch date: March 3, 2023
Source: United States (US)
Launch site: AIR FORCE WESTERN TEST RANGE (AFWTR)
Your satellite tracking list
Your tracking list is empty




NASA's NSSDC Master Catalog

Two Line Element Set (TLE):
1 55752U 23028M   24325.56111028  .00000577  00000-0  56160-4 0  9990
2 55752  69.9997 359.7675 0002622 267.3149  92.7710 14.98337062 95026
Source of the keplerian elements: AFSPC